contact:dominique.lefevre@mio.osupytheas.fr, maurice.libes@osupytheas.fr, didier.mallarino@osupytheas.fr
Project:EMSO http://www.emso-fr.org/EMSO-France
Depth: 2436.0 m
Title:EMSO Ligure Ouest : Data MII capteur AQUADOPP
Date,Latitude,Longitude,X_East,Y_North,Z_Up,Amplitude_X,Amplitude_Y,Amplitude_Z,Batterie,SoundSpeed,Heading,Pitch,Roll,Pressure,TIS,Speed,Direction
, degrees North, degrees East, m.s-1, m.s-1,m.s-1, 1, 1, 1, Volt, m.s-1, degree, degree, degree, dbar, degree_C, m.s-1, degree
2021-09-07T00:04:03,42.805,6.029,0.011,-0.018,-0.009,102.0,101.0,100.0,13.4,1505.2,327.1,-0.8,1.8,2470.585,13.28,0.021,148.6
2021-09-07T00:07:03,42.805,6.029,-0.001,-0.026,0.0,101.0,102.0,101.0,13.3,1505.2,325.9,-0.8,1.8,2470.588,13.28,0.026,182.2
2021-09-07T00:10:03,42.805,6.029,-0.002,-0.027,0.008,103.0,101.0,100.0,13.3,1505.2,328.1,-0.8,1.8,2470.595,13.28,0.027,184.2
2021-09-07T00:13:03,42.805,6.029,0.006,-0.017,-0.001,101.0,101.0,101.0,13.4,1505.2,328.6,-0.7,1.8,2470.598,13.28,0.018,160.6
2021-09-07T00:16:03,42.805,6.029,-0.012,-0.029,-0.023,101.0,101.0,100.0,13.3,1505.2,328.7,-0.7,1.8,2470.6,13.28,0.031,202.5
2021-09-07T00:19:03,42.805,6.029,0.032,-0.023,-0.022,102.0,102.0,100.0,13.3,1505.2,325.8,-0.7,1.8,2470.6,13.28,0.039,125.7
2021-09-07T00:22:03,42.805,6.029,0.029,-0.042,-0.006,100.0,101.0,101.0,13.4,1505.2,325.8,-0.8,1.8,2470.566,13.28,0.051,145.4
2021-09-07T00:25:03,42.805,6.029,0.009,-0.035,-0.004,102.0,102.0,100.0,13.3,1505.2,329.8,-0.7,1.8,2470.584,13.28,0.036,165.6
2021-09-07T00:28:03,42.805,6.029,-0.007,-0.01,-0.041,102.0,102.0,102.0,13.4,1505.2,331.2,-0.8,1.8,2470.569,13.28,0.012,215.0
2021-09-07T00:31:03,42.805,6.029,0.006,-0.02,-0.023,101.0,100.0,100.0,13.4,1505.2,326.9,-0.7,1.8,2470.528,13.28,0.02,163.3
2021-09-07T00:34:03,42.805,6.029,0.004,-0.023,0.005,100.0,102.0,100.0,13.4,1505.2,327.8,-0.8,1.8,2470.582,13.28,0.023,170.1
2021-09-07T00:37:03,42.805,6.029,0.015,-0.012,0.0,100.0,101.0,102.0,13.3,1505.2,328.0,-0.7,1.8,2470.576,13.28,0.019,128.7
2021-09-07T00:40:03,42.805,6.029,0.006,-0.018,-0.02,102.0,100.0,101.0,13.4,1505.2,325.1,-0.7,1.8,2470.538,13.28,0.018,161.6
2021-09-07T00:43:03,42.805,6.029,-0.011,-0.002,0.003,100.0,102.0,101.0,13.4,1505.2,330.0,-0.8,1.8,2470.56,13.28,0.011,259.7
2021-09-07T00:46:03,42.805,6.029,0.009,-0.02,-0.013,101.0,100.0,100.0,13.4,1505.2,326.0,-0.8,1.8,2470.539,13.28,0.021,155.8
2021-09-07T00:49:03,42.805,6.029,0.005,-0.016,-0.012,103.0,101.0,99.0,13.4,1505.2,330.4,-0.7,1.8,2470.546,13.28,0.016,162.6
2021-09-07T00:52:03,42.805,6.029,0.017,-0.018,-0.003,99.0,103.0,102.0,13.4,1505.2,330.9,-0.7,1.8,2470.574,13.28,0.024,136.6
2021-09-07T00:55:03,42.805,6.029,-0.003,-0.027,-0.027,102.0,101.0,100.0,13.4,1505.2,330.7,-0.8,1.8,2470.521,13.28,0.027,186.3
2021-09-07T00:58:03,42.805,6.029,0.023,-0.017,0.02,99.0,103.0,100.0,13.4,1505.2,330.5,-0.7,1.8,2470.556,13.28,0.028,126.5
2021-09-07T01:04:03,42.805,6.029,0.023,-0.007,-0.013,104.0,103.0,102.0,13.4,1505.2,327.2,-0.7,1.8,2470.55,13.28,0.024,106.9
2021-09-07T01:07:03,42.805,6.029,0.01,-0.028,-0.019,101.0,102.0,101.0,13.4,1505.2,328.2,-0.8,1.8,2470.541,13.28,0.029,160.4
2021-09-07T01:10:03,42.805,6.029,0.019,-0.021,0.015,104.0,103.0,99.0,13.4,1505.2,325.1,-0.8,1.8,2470.588,13.28,0.028,137.9
2021-09-07T01:13:03,42.805,6.029,0.016,-0.011,-0.003,100.0,103.0,99.0,13.4,1505.2,330.1,-0.8,1.8,2470.569,13.28,0.019,124.5
2021-09-07T01:16:03,42.805,6.029,-0.009,-0.036,-0.013,101.0,99.0,100.0,13.3,1505.2,328.6,-0.7,1.8,2470.552,13.28,0.037,194.0
2021-09-07T01:19:03,42.805,6.029,0.013,-0.005,-0.011,102.0,101.0,99.0,13.4,1505.2,330.1,-0.7,1.8,2470.543,13.28,0.013,111.0
2021-09-07T01:22:03,42.805,6.029,-0.008,-0.009,-0.007,100.0,101.0,99.0,13.4,1505.2,330.7,-0.8,1.8,2470.531,13.28,0.012,221.6
2021-09-07T01:25:03,42.805,6.029,0.009,-0.022,-0.024,102.0,100.0,100.0,13.4,1505.2,329.2,-0.7,1.8,2470.538,13.28,0.023,157.8
2021-09-07T01:28:03,42.805,6.029,-0.005,-0.007,-0.023,101.0,101.0,100.0,13.4,1505.2,326.8,-0.8,1.8,2470.486,13.28,0.008,215.5
2021-09-07T01:31:03,42.805,6.029,0.017,-0.016,-0.029,102.0,100.0,99.0,13.4,1505.2,329.1,-0.7,1.8,2470.521,13.28,0.023,133.3
2021-09-07T01:34:03,42.805,6.029,0.012,0.004,-0.019,102.0,101.0,99.0,13.4,1505.2,325.5,-0.8,1.8,2470.511,13.28,0.012,71.6
2021-09-07T01:37:03,42.805,6.029,0.004,-0.024,-0.035,101.0,101.0,100.0,13.4,1505.2,325.9,-0.8,1.8,2470.519,13.28,0.024,170.5
2021-09-07T01:40:03,42.805,6.029,0.005,-0.036,-0.03,100.0,101.0,100.0,13.4,1505.2,327.9,-0.8,1.8,2470.507,13.28,0.036,172.1
2021-09-07T01:43:03,42.805,6.029,-0.019,-0.005,-0.029,102.0,100.0,100.0,13.3,1505.2,328.0,-0.7,1.8,2470.497,13.28,0.019,255.3
2021-09-07T01:46:03,42.805,6.029,-0.026,-0.008,-0.022,100.0,102.0,100.0,13.4,1505.2,331.2,-0.7,1.8,2470.545,13.28,0.027,252.9
2021-09-07T01:49:03,42.805,6.029,-0.012,-0.015,-0.008,100.0,101.0,100.0,13.3,1505.2,329.7,-0.7,1.9,2470.517,13.28,0.019,218.7
2021-09-07T01:52:03,42.805,6.029,-0.009,-0.009,-0.028,102.0,101.0,100.0,13.3,1505.2,326.4,-0.8,1.9,2470.514,13.28,0.012,225.0
2021-09-07T01:55:03,42.805,6.029,-0.021,-0.011,-0.002,103.0,102.0,99.0,13.4,1505.2,327.2,-0.8,1.8,2470.481,13.28,0.023,242.4
2021-09-07T01:58:03,42.805,6.029,-0.002,-0.016,-0.011,100.0,101.0,101.0,13.3,1505.2,330.6,-0.7,1.8,2470.515,13.28,0.016,187.1
2021-09-07T02:04:03,42.805,6.029,-0.003,-0.004,-0.003,100.0,101.0,100.0,13.4,1505.2,330.4,-0.7,1.8,2470.577,13.28,0.005,216.9
2021-09-07T02:07:03,42.805,6.029,-0.007,-0.009,-0.014,101.0,101.0,100.0,13.4,1505.2,328.2,-0.7,1.8,2470.547,13.28,0.011,217.9
2021-09-07T02:10:03,42.805,6.029,-0.018,-0.017,-0.027,101.0,101.0,100.0,13.3,1505.2,329.7,-0.8,1.8,2470.56,13.28,0.024,226.6
2021-09-07T02:13:03,42.805,6.029,0.008,-0.012,0.008,100.0,101.0,100.0,13.3,1505.2,325.7,-0.8,1.8,2470.503,13.28,0.014,146.3
2021-09-07T02:16:03,42.805,6.029,-0.009,-0.024,-0.068,100.0,102.0,100.0,13.4,1505.2,328.7,-0.7,1.9,2470.517,13.28,0.025,200.6
2021-09-07T02:19:03,42.805,6.029,0.008,-0.028,-0.042,102.0,101.0,100.0,13.3,1505.2,330.3,-0.8,1.8,2470.513,13.28,0.029,164.1
2021-09-07T02:22:03,42.805,6.029,0.021,-0.001,0.038,103.0,101.0,99.0,13.4,1505.2,325.8,-0.8,1.9,2470.462,13.28,0.021,92.7
2021-09-07T02:25:03,42.805,6.029,0.015,-0.01,0.006,100.0,102.0,101.0,13.4,1505.2,327.8,-0.7,1.8,2470.511,13.28,0.018,123.7
2021-09-07T02:28:03,42.805,6.029,0.005,-0.023,-0.013,101.0,101.0,100.0,13.3,1505.2,330.3,-0.7,1.8,2470.517,13.28,0.023,167.7
2021-09-07T02:31:03,42.805,6.029,0.007,-0.008,0.009,103.0,100.0,100.0,13.3,1505.2,325.7,-0.8,1.9,2470.485,13.28,0.01,138.8
2021-09-07T02:34:03,42.805,6.029,0.011,-0.021,-0.011,101.0,102.0,99.0,13.4,1505.2,326.3,-0.7,1.8,2470.512,13.28,0.023,152.4
2021-09-07T02:37:03,42.805,6.029,0.023,-0.034,-0.003,98.0,101.0,100.0,13.4,1505.2,325.2,-0.7,1.8,2470.525,13.28,0.041,145.9
2021-09-07T02:40:03,42.805,6.029,0.007,0.013,0.01,102.0,101.0,99.0,13.3,1505.2,326.5,-0.8,1.9,2470.522,13.28,0.014,28.3
2021-09-07T02:43:03,42.805,6.029,0.001,-0.014,-0.008,102.0,100.0,101.0,13.4,1505.2,325.8,-0.8,1.8,2470.506,13.28,0.014,175.9
2021-09-07T02:46:03,42.805,6.029,-0.004,-0.027,-0.03,101.0,101.0,100.0,13.4,1505.2,326.7,-0.7,1.8,2470.549,13.28,0.027,188.4
2021-09-07T02:49:03,42.805,6.029,0.01,-0.006,0.026,101.0,102.0,100.0,13.4,1505.2,330.1,-0.8,1.8,2470.522,13.28,0.011,121.0
2021-09-07T02:52:03,42.805,6.029,0.006,-0.007,0.006,103.0,102.0,99.0,13.4,1505.2,328.2,-0.8,1.8,2470.473,13.28,0.009,139.4
2021-09-07T02:55:03,42.805,6.029,0.003,-0.02,-0.009,101.0,102.0,99.0,13.4,1505.2,328.6,-0.8,1.8,2470.497,13.28,0.02,171.5
2021-09-07T02:58:03,42.805,6.029,-0.007,-0.013,-0.032,99.0,101.0,100.0,13.4,1505.2,330.8,-0.7,1.8,2470.552,13.28,0.014,208.3
2021-09-07T03:04:03,42.805,6.029,0.01,-0.028,-0.033,100.0,102.0,100.0,13.4,1505.2,329.6,-0.8,1.8,2470.549,13.28,0.029,160.4
2021-09-07T03:07:03,42.805,6.029,0.013,-0.01,-0.01,102.0,100.0,101.0,13.3,1505.2,325.9,-0.8,1.8,2470.506,13.28,0.016,127.6
2021-09-07T03:10:03,42.805,6.029,0.012,-0.009,-0.017,101.0,101.0,100.0,13.4,1505.2,328.9,-0.8,1.8,2470.53,13.28,0.015,126.9
2021-09-07T03:13:03,42.805,6.029,0.009,0.004,-0.004,102.0,101.0,98.0,13.4,1505.2,325.0,-0.8,1.8,2470.526,13.28,0.009,66.0
2021-09-07T03:16:03,42.805,6.029,-0.019,-0.009,-0.005,101.0,101.0,99.0,13.4,1505.2,325.8,-0.8,1.9,2470.561,13.28,0.021,244.7
2021-09-07T03:19:03,42.805,6.029,0.001,0.0,0.02,102.0,100.0,100.0,13.3,1505.2,328.6,-0.7,1.8,2470.529,13.28,0.001,90.0
2021-09-07T03:22:03,42.805,6.029,-0.005,-0.003,0.0,101.0,101.0,99.0,13.4,1505.2,329.1,-0.8,1.8,2470.547,13.28,0.005,239.0
2021-09-07T03:25:03,42.805,6.029,0.001,-0.021,-0.013,100.0,101.0,100.0,13.3,1505.2,326.9,-0.8,1.8,2470.542,13.28,0.021,177.3
2021-09-07T03:28:03,42.805,6.029,0.0,-0.003,-0.011,101.0,103.0,100.0,13.4,1505.2,329.4,-0.7,1.8,2470.517,13.28,0.003,180.0
2021-09-07T03:31:03,42.805,6.029,0.004,-0.004,-0.002,101.0,99.0,100.0,13.4,1505.2,328.8,-0.7,1.8,2470.523,13.28,0.005,135.0
2021-09-07T03:34:03,42.805,6.029,0.0,-0.013,-0.014,100.0,100.0,103.0,13.4,1505.2,328.6,-0.7,1.8,2470.551,13.28,0.013,180.0
2021-09-07T03:37:03,42.805,6.029,0.017,-0.004,0.0,101.0,101.0,100.0,13.3,1505.2,326.6,-0.7,1.8,2470.512,13.28,0.017,103.2
2021-09-07T03:40:03,42.805,6.029,0.0,-0.007,-0.016,101.0,102.0,100.0,13.3,1505.2,329.2,-0.8,1.8,2470.537,13.28,0.007,180.0
2021-09-07T03:43:03,42.805,6.029,0.026,0.009,-0.007,101.0,101.0,100.0,13.3,1505.2,329.8,-0.8,1.8,2470.566,13.28,0.027,70.9
2021-09-07T03:46:03,42.805,6.029,0.009,-0.004,-0.041,100.0,101.0,100.0,13.4,1505.2,330.4,-0.7,1.8,2470.556,13.28,0.009,114.0
2021-09-07T03:49:03,42.805,6.029,-0.002,-0.006,-0.017,101.0,101.0,100.0,13.3,1505.2,327.3,-0.8,1.8,2470.499,13.28,0.006,198.4
2021-09-07T03:52:03,42.805,6.029,0.008,-0.01,-0.016,101.0,101.0,101.0,13.3,1505.2,327.8,-0.8,1.8,2470.584,13.28,0.012,141.3
2021-09-07T03:55:03,42.805,6.029,0.013,-0.026,-0.008,101.0,100.0,101.0,13.3,1505.2,328.6,-0.7,1.8,2470.507,13.28,0.029,153.4
2021-09-07T03:58:03,42.805,6.029,0.027,-0.014,0.025,101.0,101.0,101.0,13.4,1505.2,331.1,-0.8,1.9,2470.578,13.28,0.03,117.4
2021-09-07T04:04:03,42.805,6.029,0.0,-0.01,-0.019,101.0,102.0,100.0,13.3,1505.2,328.8,-0.8,1.8,2470.608,13.28,0.01,180.0
2021-09-07T04:07:03,42.805,6.029,-0.01,-0.002,0.007,101.0,102.0,100.0,13.4,1505.2,328.6,-0.8,1.9,2470.585,13.28,0.01,258.7
2021-09-07T04:10:03,42.805,6.029,0.006,-0.01,-0.006,101.0,101.0,99.0,13.3,1505.2,325.5,-0.7,1.8,2470.581,13.28,0.011,149.0
2021-09-07T04:13:03,42.805,6.029,-0.008,-0.007,-0.007,100.0,100.0,101.0,13.4,1505.2,327.0,-0.8,1.8,2470.572,13.28,0.01,228.8
2021-09-07T04:16:03,42.805,6.029,0.008,-0.006,-0.015,101.0,101.0,100.0,13.4,1505.2,330.8,-0.8,1.8,2470.558,13.28,0.01,126.9
2021-09-07T04:19:03,42.805,6.029,0.012,-0.013,0.011,101.0,102.0,98.0,13.4,1505.2,328.4,-0.7,1.8,2470.62,13.28,0.017,137.3
2021-09-07T04:22:03,42.805,6.029,0.0,-0.017,-0.009,101.0,103.0,100.0,13.4,1505.2,330.9,-0.8,1.8,2470.594,13.28,0.017,180.0
2021-09-07T04:25:03,42.805,6.029,0.01,-0.017,-0.021,102.0,100.0,101.0,13.4,1505.2,327.8,-0.7,1.9,2470.627,13.28,0.019,149.5
2021-09-07T04:28:03,42.805,6.029,-0.016,-0.022,-0.005,100.0,101.0,99.0,13.4,1505.2,329.0,-0.7,1.8,2470.578,13.28,0.027,216.0
2021-09-07T04:31:03,42.805,6.029,-0.005,0.007,-0.017,99.0,101.0,100.0,13.4,1505.2,326.0,-0.8,1.9,2470.577,13.28,0.008,324.5
2021-09-07T04:34:03,42.805,6.029,-0.007,0.008,-0.032,101.0,102.0,99.0,13.3,1505.2,330.5,-0.8,1.9,2470.596,13.28,0.01,318.8
2021-09-07T04:37:03,42.805,6.029,0.0,-0.01,-0.048,100.0,102.0,100.0,13.3,1505.2,326.8,-0.7,1.8,2470.605,13.28,0.01,180.0
2021-09-07T04:40:03,42.805,6.029,0.014,-0.012,0.022,101.0,101.0,100.0,13.3,1505.2,325.2,-0.7,1.8,2470.572,13.28,0.018,130.6
2021-09-07T04:43:03,42.805,6.029,0.019,0.006,0.006,100.0,102.0,100.0,13.4,1505.2,327.5,-0.7,1.8,2470.588,13.28,0.019,72.5
2021-09-07T04:46:03,42.805,6.029,-0.014,-0.007,-0.023,102.0,100.0,100.0,13.4,1505.2,330.0,-0.8,1.8,2470.61,13.28,0.015,243.4
2021-09-07T04:49:03,42.805,6.029,0.016,-0.016,-0.005,102.0,100.0,100.0,13.4,1505.2,327.3,-0.7,1.8,2470.589,13.28,0.022,135.0
2021-09-07T04:52:03,42.805,6.029,0.004,-0.01,-0.019,101.0,101.0,100.0,13.4,1505.2,326.5,-0.7,1.8,2470.599,13.28,0.01,158.2
2021-09-07T04:55:03,42.805,6.029,0.026,-0.009,0.004,100.0,101.0,100.0,13.4,1505.2,329.1,-0.8,1.8,2470.605,13.28,0.027,109.1
2021-09-07T04:58:03,42.805,6.029,0.014,-0.02,-0.038,101.0,102.0,99.0,13.3,1505.2,327.4,-0.8,1.8,2470.602,13.28,0.024,145.0
2021-09-07T05:04:03,42.805,6.029,0.014,-0.014,-0.024,100.0,102.0,100.0,13.3,1505.2,327.8,-0.7,1.8,2470.644,13.28,0.019,135.0
2021-09-07T05:07:03,42.805,6.029,0.014,-0.027,-0.01,101.0,100.0,100.0,13.3,1505.2,330.0,-0.7,1.8,2470.637,13.28,0.03,152.6
2021-09-07T05:10:03,42.805,6.029,-0.004,-0.011,-0.008,101.0,101.0,100.0,13.4,1505.2,325.3,-0.8,1.8,2470.662,13.28,0.011,200.0
2021-09-07T05:13:03,42.805,6.029,0.024,-0.014,0.026,101.0,101.0,100.0,13.3,1505.2,326.4,-0.7,1.8,2470.689,13.28,0.027,120.3
2021-09-07T05:16:03,42.805,6.029,0.011,-0.011,0.009,103.0,101.0,99.0,13.4,1505.2,326.7,-0.7,1.8,2470.611,13.28,0.015,135.0
2021-09-07T05:19:03,42.805,6.029,0.038,0.009,0.034,100.0,102.0,101.0,13.4,1505.2,329.3,-0.8,1.8,2470.653,13.28,0.039,76.7
2021-09-07T05:22:03,42.805,6.029,-0.012,0.001,0.001,101.0,101.0,100.0,13.4,1505.2,328.4,-0.8,1.8,2470.633,13.28,0.012,274.8
2021-09-07T05:25:03,42.805,6.029,0.011,-0.019,-0.021,101.0,101.0,101.0,13.4,1505.2,328.0,-0.7,1.8,2470.625,13.28,0.021,149.9
2021-09-07T05:28:03,42.805,6.029,-0.026,0.009,-0.018,102.0,103.0,99.0,13.4,1505.2,327.2,-0.8,1.8,2470.679,13.28,0.027,289.1
2021-09-07T05:31:03,42.805,6.029,0.008,0.001,0.003,101.0,101.0,100.0,13.3,1505.2,327.1,-0.7,1.8,2470.664,13.28,0.008,82.9
2021-09-07T05:34:03,42.805,6.029,-0.015,0.018,0.005,100.0,102.0,101.0,13.3,1505.2,330.3,-0.8,1.8,2470.68,13.28,0.023,320.2
2021-09-07T05:37:03,42.805,6.029,-0.014,-0.008,-0.015,101.0,101.0,100.0,13.4,1505.2,329.4,-0.7,1.8,2470.65,13.28,0.016,240.3
2021-09-07T05:40:03,42.805,6.029,-0.002,0.003,-0.007,101.0,101.0,100.0,13.3,1505.2,325.5,-0.8,1.8,2470.633,13.28,0.003,326.3
2021-09-07T05:43:03,42.805,6.029,0.008,-0.017,-0.011,102.0,100.0,100.0,13.4,1505.2,327.8,-0.8,1.8,2470.627,13.28,0.018,154.8
2021-09-07T05:46:03,42.805,6.029,0.02,-0.007,0.002,101.0,101.0,101.0,13.4,1505.2,328.2,-0.7,1.8,2470.654,13.28,0.021,109.3
2021-09-07T05:49:03,42.805,6.029,0.002,0.009,-0.002,100.0,101.0,101.0,13.4,1505.2,329.2,-0.8,1.8,2470.647,13.28,0.009,12.5
2021-09-07T05:52:03,42.805,6.029,-0.011,-0.019,-0.033,100.0,102.0,100.0,13.4,1505.2,329.6,-0.8,1.8,2470.695,13.28,0.021,210.1
2021-09-07T05:55:03,42.805,6.029,0.007,0.004,0.001,101.0,102.0,101.0,13.4,1505.2,328.9,-0.8,1.8,2470.656,13.28,0.008,60.3
2021-09-07T05:58:03,42.805,6.029,0.002,-0.01,0.01,102.0,101.0,100.0,13.3,1505.2,327.3,-0.8,1.9,2470.647,13.28,0.01,168.7
2021-09-07T06:04:03,42.805,6.029,0.015,-0.019,0.018,99.0,101.0,100.0,13.3,1505.2,325.8,-0.8,1.8,2470.753,13.28,0.024,141.7
2021-09-07T06:07:03,42.805,6.029,-0.002,-0.007,-0.008,102.0,100.0,100.0,13.4,1505.2,331.3,-0.7,1.8,2470.74,13.28,0.007,195.9
2021-09-07T06:10:03,42.805,6.029,-0.01,-0.011,-0.001,101.0,101.0,99.0,13.4,1505.2,327.6,-0.8,1.8,2470.731,13.28,0.014,222.3
2021-09-07T06:13:03,42.805,6.029,0.0,0.002,0.012,101.0,100.0,100.0,13.3,1505.2,327.3,-0.7,1.8,2470.713,13.28,0.002,0.0
2021-09-07T06:16:03,42.805,6.029,0.015,-0.005,0.007,101.0,101.0,99.0,13.4,1505.2,328.5,-0.8,1.8,2470.702,13.28,0.015,108.4
2021-09-07T06:19:03,42.805,6.029,-0.009,0.001,-0.025,101.0,102.0,100.0,13.3,1505.2,327.1,-0.8,1.8,2470.725,13.28,0.009,276.3
2021-09-07T06:22:03,42.805,6.029,0.016,-0.014,0.009,101.0,100.0,101.0,13.4,1505.2,327.0,-0.7,1.8,2470.691,13.28,0.021,131.2
2021-09-07T06:25:03,42.805,6.029,0.009,0.001,-0.013,102.0,100.0,101.0,13.4,1505.2,327.2,-0.7,1.8,2470.72,13.28,0.009,83.7
2021-09-07T06:28:03,42.805,6.029,0.016,0.002,0.002,101.0,101.0,101.0,13.3,1505.2,327.2,-0.7,1.8,2470.71,13.28,0.016,82.9
2021-09-07T06:31:03,42.805,6.029,0.024,0.004,0.003,101.0,103.0,100.0,13.4,1505.2,329.2,-0.8,1.8,2470.724,13.28,0.024,80.5
2021-09-07T06:34:03,42.805,6.029,-0.004,-0.006,-0.002,101.0,102.0,99.0,13.4,1505.2,328.2,-0.7,1.8,2470.681,13.28,0.007,213.7
2021-09-07T06:37:03,42.805,6.029,0.0,-0.018,-0.006,101.0,103.0,99.0,13.4,1505.2,328.0,-0.7,1.9,2470.718,13.28,0.018,180.0
2021-09-07T06:40:03,42.805,6.029,0.023,0.003,0.013,102.0,102.0,100.0,13.3,1505.2,327.6,-0.8,1.8,2470.733,13.28,0.023,82.6
2021-09-07T06:43:03,42.805,6.029,-0.004,-0.01,0.006,102.0,101.0,100.0,13.4,1505.2,329.1,-0.8,1.8,2470.716,13.28,0.01,201.8
2021-09-07T06:46:03,42.805,6.029,-0.004,-0.005,-0.002,101.0,102.0,100.0,13.4,1505.2,327.2,-0.7,1.9,2470.708,13.28,0.006,218.7
2021-09-07T06:49:03,42.805,6.029,0.003,0.01,0.02,100.0,103.0,102.0,13.4,1505.2,325.2,-0.8,1.8,2470.682,13.28,0.01,16.7
2021-09-07T06:52:03,42.805,6.029,0.002,-0.014,-0.022,101.0,102.0,100.0,13.4,1505.2,330.4,-0.8,1.8,2470.696,13.28,0.014,171.9
2021-09-07T06:55:03,42.805,6.029,0.005,-0.01,-0.038,101.0,102.0,100.0,13.4,1505.2,330.8,-0.8,1.9,2470.697,13.28,0.011,153.4
2021-09-07T06:58:03,42.805,6.029,0.009,-0.017,-0.018,101.0,102.0,100.0,13.3,1505.2,326.4,-0.8,1.8,2470.726,13.28,0.019,152.1
2021-09-07T07:04:03,42.805,6.029,-0.024,-0.017,-0.006,101.0,101.0,100.0,13.4,1505.2,330.5,-0.8,1.8,2470.727,13.28,0.029,234.7
2021-09-07T07:07:03,42.805,6.029,-0.002,-0.002,-0.023,101.0,101.0,100.0,13.4,1505.2,326.9,-0.8,1.8,2470.72,13.28,0.002,225.0
2021-09-07T07:10:03,42.805,6.029,0.009,0.004,0.016,101.0,102.0,99.0,13.4,1505.2,328.2,-0.7,1.8,2470.724,13.28,0.009,66.0
2021-09-07T07:13:03,42.805,6.029,0.037,-0.024,-0.012,101.0,102.0,100.0,13.4,1505.2,329.5,-0.7,1.9,2470.702,13.28,0.044,123.0
2021-09-07T07:16:03,42.805,6.029,0.031,0.0,0.035,101.0,101.0,100.0,13.4,1505.2,327.2,-0.7,1.8,2470.666,13.28,0.03,90.0
2021-09-07T07:19:03,42.805,6.029,-0.003,-0.016,0.003,100.0,103.0,99.0,13.4,1505.2,326.8,-0.7,1.8,2470.738,13.28,0.016,190.6
2021-09-07T07:22:03,42.805,6.029,0.006,-0.005,0.02,100.0,101.0,100.0,13.4,1505.2,326.2,-0.7,1.8,2470.717,13.28,0.007,129.8
2021-09-07T07:25:03,42.805,6.029,0.03,-0.021,-0.03,101.0,101.0,100.0,13.4,1505.2,324.9,-0.8,1.8,2470.712,13.28,0.036,125.0
2021-09-07T07:28:03,42.805,6.029,0.035,-0.002,0.001,101.0,101.0,101.0,13.4,1505.2,327.8,-0.8,1.9,2470.688,13.28,0.035,93.3
2021-09-07T07:31:03,42.805,6.029,0.013,-0.022,-0.013,101.0,102.0,100.0,13.4,1505.2,328.7,-0.8,1.8,2470.693,13.28,0.025,149.4
2021-09-07T07:34:03,42.805,6.029,0.024,-0.016,-0.006,102.0,100.0,102.0,13.4,1505.2,327.6,-0.7,1.9,2470.693,13.28,0.028,123.7
2021-09-07T07:37:03,42.805,6.029,0.026,-0.005,-0.01,101.0,101.0,101.0,13.3,1505.2,328.3,-0.8,1.8,2470.69,13.28,0.026,100.9
2021-09-07T07:40:03,42.805,6.029,-0.005,-0.015,-0.004,101.0,102.0,100.0,13.4,1505.2,328.6,-0.8,1.8,2470.683,13.28,0.015,198.4
2021-09-07T07:43:03,42.805,6.029,0.037,-0.014,0.008,101.0,100.0,101.0,13.4,1505.2,327.8,-0.7,1.8,2470.655,13.28,0.039,110.7
2021-09-07T07:46:03,42.805,6.029,0.026,-0.014,0.025,101.0,102.0,100.0,13.4,1505.2,327.0,-0.7,1.8,2470.649,13.28,0.029,118.3
2021-09-07T07:49:03,42.805,6.029,0.009,-0.014,-0.001,100.0,103.0,100.0,13.3,1505.2,327.5,-0.7,1.8,2470.688,13.28,0.016,147.3
2021-09-07T07:52:03,42.805,6.029,0.013,-0.01,-0.003,101.0,102.0,100.0,13.4,1505.2,326.1,-0.8,1.8,2470.683,13.28,0.016,127.6
2021-09-07T07:55:03,42.805,6.029,0.031,-0.018,0.016,102.0,102.0,100.0,13.4,1505.2,329.3,-0.8,1.8,2470.654,13.28,0.035,120.1
2021-09-07T07:58:03,42.805,6.029,0.025,-0.008,-0.02,101.0,101.0,100.0,13.4,1505.2,329.2,-0.7,1.8,2470.694,13.28,0.026,107.7
2021-09-07T08:04:03,42.805,6.029,0.019,-0.014,0.004,102.0,102.0,100.0,13.4,1505.2,331.3,-0.8,1.8,2470.735,13.28,0.023,126.4
2021-09-07T08:07:03,42.805,6.029,0.018,-0.012,-0.013,101.0,101.0,100.0,13.3,1505.2,329.0,-0.7,1.8,2470.667,13.28,0.021,123.7
2021-09-07T08:10:03,42.805,6.029,0.017,-0.009,0.027,101.0,103.0,100.0,13.3,1505.2,325.8,-0.7,1.8,2470.698,13.28,0.019,117.9
2021-09-07T08:13:03,42.805,6.029,0.039,-0.02,0.003,101.0,101.0,101.0,13.4,1505.2,329.9,-0.8,1.8,2470.702,13.28,0.043,117.1
2021-09-07T08:16:03,42.805,6.029,0.032,-0.013,0.024,101.0,101.0,101.0,13.3,1505.2,327.9,-0.8,1.8,2470.682,13.28,0.034,112.1
2021-09-07T08:19:03,42.805,6.029,0.007,-0.003,0.027,101.0,101.0,101.0,13.3,1505.2,326.7,-0.8,1.8,2470.709,13.28,0.007,113.2
2021-09-07T08:22:03,42.805,6.029,0.031,-0.005,-0.019,101.0,103.0,101.0,13.4,1505.2,327.7,-0.8,1.8,2470.684,13.28,0.031,99.2
2021-09-07T08:25:03,42.805,6.029,0.026,0.0,0.005,102.0,102.0,100.0,13.4,1505.2,326.6,-0.8,1.8,2470.669,13.28,0.026,90.0
2021-09-07T08:28:03,42.805,6.029,0.038,-0.005,0.029,101.0,101.0,100.0,13.3,1505.2,325.0,-0.8,1.8,2470.693,13.28,0.038,97.5
2021-09-07T08:31:03,42.805,6.029,0.034,-0.01,0.0,102.0,101.0,101.0,13.4,1505.2,330.2,-0.7,1.8,2470.678,13.28,0.035,106.4
2021-09-07T08:34:03,42.805,6.029,0.036,-0.014,0.011,103.0,101.0,100.0,13.3,1505.2,329.4,-0.7,1.8,2470.654,13.28,0.038,111.2
2021-09-07T08:37:03,42.805,6.029,0.008,-0.033,-0.04,101.0,101.0,100.0,13.3,1505.2,330.3,-0.7,1.8,2470.663,13.28,0.033,166.4
2021-09-07T08:40:03,42.805,6.029,0.035,-0.038,-0.017,101.0,101.0,100.0,13.3,1505.2,330.5,-0.8,1.8,2470.674,13.28,0.051,137.4
2021-09-07T08:43:03,42.805,6.029,0.056,-0.015,0.01,101.0,101.0,100.0,13.3,1505.2,330.5,-0.7,1.8,2470.627,13.28,0.057,105.0
2021-09-07T08:46:03,42.805,6.029,0.009,-0.011,-0.019,101.0,102.0,101.0,13.4,1505.2,328.2,-0.7,1.8,2470.672,13.28,0.014,140.7
2021-09-07T08:49:03,42.805,6.029,0.009,-0.014,0.014,102.0,102.0,100.0,13.4,1505.2,331.6,-0.7,1.8,2470.636,13.28,0.016,147.3
2021-09-07T08:52:03,42.805,6.029,0.02,-0.02,-0.003,101.0,101.0,101.0,13.4,1505.2,325.8,-0.8,1.8,2470.624,13.28,0.028,135.0
2021-09-07T08:55:03,42.805,6.029,0.007,-0.022,0.008,101.0,101.0,99.0,13.4,1505.2,327.0,-0.7,1.8,2470.631,13.28,0.023,162.4
2021-09-07T08:58:03,42.805,6.029,0.035,-0.024,-0.008,100.0,103.0,100.0,13.4,1505.2,326.8,-0.8,1.8,2470.652,13.28,0.042,124.4
2021-09-07T09:04:03,42.805,6.029,0.02,0.0,0.001,101.0,102.0,101.0,13.3,1505.2,331.1,-0.8,1.8,2470.677,13.28,0.02,90.0
2021-09-07T09:07:03,42.805,6.029,0.028,-0.026,0.011,100.0,102.0,100.0,13.4,1505.2,325.1,-0.7,1.8,2470.668,13.28,0.038,132.9
2021-09-07T09:10:03,42.805,6.029,0.035,-0.029,0.005,102.0,99.0,100.0,13.3,1505.2,324.9,-0.7,1.8,2470.642,13.28,0.045,129.6
2021-09-07T09:13:03,42.805,6.029,0.022,-0.022,-0.001,101.0,103.0,100.0,13.4,1505.2,326.6,-0.7,1.8,2470.649,13.28,0.031,135.0
2021-09-07T09:16:03,42.805,6.029,0.017,-0.024,-0.006,102.0,102.0,100.0,13.4,1505.2,329.5,-0.7,1.9,2470.656,13.28,0.029,144.7
2021-09-07T09:19:03,42.805,6.029,0.013,-0.004,0.013,100.0,101.0,101.0,13.3,1505.2,327.0,-0.8,1.8,2470.649,13.28,0.013,107.1
2021-09-07T09:22:03,42.805,6.029,0.022,-0.031,0.003,101.0,102.0,101.0,13.4,1505.2,328.5,-0.8,1.8,2470.624,13.28,0.038,144.6
2021-09-07T09:25:03,42.805,6.029,0.015,-0.015,-0.005,101.0,101.0,101.0,13.4,1505.2,329.6,-0.7,1.8,2470.615,13.28,0.021,135.0
2021-09-07T09:28:03,42.805,6.029,0.015,0.016,0.009,101.0,101.0,102.0,13.4,1505.2,329.3,-0.7,1.8,2470.661,13.28,0.021,43.1
2021-09-07T09:31:03,42.805,6.029,0.015,0.006,0.069,102.0,101.0,101.0,13.4,1505.2,325.0,-0.8,1.8,2470.64,13.28,0.016,68.2
2021-09-07T09:34:03,42.805,6.029,0.037,-0.008,0.025,100.0,101.0,101.0,13.4,1505.2,330.0,-0.8,1.8,2470.64,13.28,0.037,102.2
2021-09-07T09:37:03,42.805,6.029,0.027,-0.029,-0.016,101.0,101.0,101.0,13.3,1505.2,329.9,-0.8,1.8,2470.638,13.28,0.039,137.0
2021-09-07T09:40:03,42.805,6.029,0.033,-0.018,0.034,101.0,102.0,101.0,13.4,1505.2,328.1,-0.7,1.8,2470.628,13.28,0.037,118.6
2021-09-07T09:43:03,42.805,6.029,0.026,-0.005,-0.008,102.0,101.0,100.0,13.3,1505.2,326.1,-0.8,1.8,2470.615,13.28,0.026,100.9
2021-09-07T09:46:03,42.805,6.029,0.041,-0.005,0.036,102.0,101.0,100.0,13.4,1505.2,330.6,-0.8,1.8,2470.633,13.28,0.041,97.0
2021-09-07T09:49:03,42.805,6.029,0.015,-0.014,-0.006,101.0,101.0,101.0,13.4,1505.2,327.5,-0.8,1.8,2470.664,13.28,0.02,133.0
2021-09-07T09:52:03,42.805,6.029,0.017,-0.02,0.01,102.0,101.0,101.0,13.4,1505.2,325.8,-0.8,1.8,2470.574,13.28,0.026,139.6
2021-09-07T09:55:03,42.805,6.029,0.009,-0.024,-0.008,102.0,101.0,101.0,13.3,1505.2,325.8,-0.7,1.8,2470.598,13.28,0.025,159.4
2021-09-07T09:58:03,42.805,6.029,0.022,0.0,0.0,100.0,101.0,102.0,13.4,1505.2,328.6,-0.8,1.8,2470.597,13.28,0.022,90.0